Showing default

BRO-11, 58264

Orbit data source: Space-Track

BRO-11, 58264 is a payload satellite owned by Unseen Labs (FR) in SSO that was launched on Sat, 11 Nov 2023 UTC via an FALCON 9 launch vehicle from the Air Force Western Test Range (AFWTR). Payload-class satellites include a variety of spacecraft equipped with specific instruments for various scientific and technological missions. These include communications satellites like Starlink; space stations such as the ISS; scientific satellites like the Hubble; Earth observation satellites from companies like Planet Labs, Umbra, and HawkEye 360; GPS; miniature CubeSats for education and research; and military/defense satellites.

Loading next visibility...
Identifier
58264, 2023-174J
Orbit
SSO
Country
Flag of FRFR
Related business
Manufacturer
GOMSpace
Mission
Operational Commercial Sigint
Bus & Motor
CUBESAT 6U, Unknown motor
Mass
10 kg wet, ~10 kg dry
Launch date (UTC)
2023-11-11 (2 years ago)
Launch vehicle
FALCON 9
Launch site
Air Force Western Test Range (AFWTR)
Object type
Payload
Rocket body
Debris
Shape & HBR
Box, 0.1 m
Radar Cross Section
0.080 m², Medium (>0.1 m² and < 1m²)

Expand to show TLE details & history
Last TLE update: 6 hours ago

TLE from 6 hours ago
0 BRO-11
1 58264U 23174J   25297.76487692  .00007695  00000-0  31891-3 0  9998
2 58264  97.4156  11.9597 0010092 324.6116  35.4451 15.24130211108850
Epoch: 2025-10-24T18:21Z
TLE epoch observation values (Epoch: 2025-10-24T18:21:25.365Z)
Latitude
-0.00001°
Longitude
63.19892°
Altitude
490.846 km
Speed
7.623 km/s
True Right ascension
00h 47m 50s
True Declination
0° 00' 00"
Sunlit
Object was in full shadow at epoch
Visualization orbit readout
Latitude
Unknown
Longitude
Unknown
Altitude
Unknown
Speed
Unknown
Apparent Right ascension
Unknown
Apparent Declination
Unknown
Sunlit
N/A
Visualization observer readout
Local Sidereal Time
19:31:44
Azimuth
Unknown
Elevation
Unknown
Doppler factor
Unknown
Orbital elements
Apogee altitude
497.291 km
Perigee altitude
483.428 km
Semi-major axis
6,868.496 km
Eccentricity
0.00101
Inclination
97.4156°
RAAN
11.9597°
Arg. of periapsis
324.6116°
True anomaly
35.51223°
Mean anomaly
35.4451°
Eccentric anomaly
35.47866°
Mean motion
3.81286 °/min
Orbital period
94.42 mins
BSTAR
0.00031891
Loading maneuver chart data...
Computing Atmospheric mass density...

Documentation

Showing up to 5 results
|